GFSNIL_prec_cthk_129.txt.gz
RH
59 57 60 61 64 64 67 72 71 73 70 77 80 82 81 72 64 60 66 79 80 69
67 64 66 68 70 71 73 74 76 73 69 70 76 75 72 65 57 52 54 61 74 76
68 66 68 68 70 71 74 75 74 68 61 61 64 65 65 59 58 54 46 47 51 58
76 72 68 68 69 67 66 61 57 53 51 49 50 52 54 56 57 58 52 45 43 47
77 75 76 70 63 61 60 57 53 48 44 41 36 36 36 45 49 53 54 52 47 45
73 74 70 66 64 59 55 54 49 42 37 28 26 28 30 33 41 45 51 61 49 43
73 65 61 57 51 50 46 39 33 31 29 24 22 25 30 34 39 43 50 67 50 45
58 57 55 51 42 35 31 29 28 25 25 26 30 34 38 42 45 52 53 66 53 51
53 49 41 36 32 31 30 32 31 26 26 27 29 35 44 48 49 53 61 68 62 60
50 45 37 32 28 27 27 28 28 30 32 32 30 39 46 52 50 54 61 66 63 56
41 36 33 30 29 30 31 34 33 34 33 32 34 43 49 53 54 62 70 72 55 55
40 39 36 34 32 33 32 32 37 38 37 36 40 48 53 55 68 66 59 64 60 68
41 39 37 34 32 33 35 37 38 40 41 43 45 51 56 59 60 65 71 66 64 64
42 39 38 38 35 34 35 38 42 48 50 51 56 55 55 62 66 65 65 64 71 80

GFSNIL_prec_cthk_132.txt.gz
RH
86 79 72 76 73 74 67 67 68 68 70 74 78 74 67 70 83 82 83 79 80 73
74 86 76 75 74 71 69 65 68 67 68 68 66 69 71 69 72 79 78 76 71 62
74 70 69 69 65 64 66 66 67 68 69 71 71 72 69 64 61 63 68 68 67 59
66 66 67 64 66 68 71 70 72 74 73 74 73 70 69 65 61 61 64 66 67 68
68 65 62 61 58 63 64 67 67 69 67 65 64 60 56 53 50 52 47 45 56 64
72 72 69 68 68 70 70 71 70 63 60 58 56 51 45 42 41 37 35 37 41 49
76 72 70 70 70 68 68 71 67 61 56 53 50 43 34 33 33 32 32 33 36 38
82 78 73 68 69 65 61 59 54 50 43 39 35 32 30 29 31 33 32 31 34 36
79 79 75 68 63 57 45 39 36 35 32 31 31 30 28 31 29 33 38 41 40 41
73 69 57 53 46 42 38 35 33 31 29 28 26 28 32 32 32 33 38 43 45 46
60 56 48 45 42 40 36 32 30 28 30 31 35 34 31 31 32 35 38 46 47 48
52 47 38 38 37 34 33 31 31 31 32 33 35 37 36 32 33 40 43 49 54 55
43 43 40 39 38 35 33 32 34 34 36 38 38 40 39 37 40 46 51 55 59 59
43 42 40 39 39 35 34 37 36 36 40 42 43 44 48 50 50 52 52 56 61 67

GFSNIL_prec_cthk_135.txt.gz
RH
63 86 88 73 64 59 58 62 76 80 73 85 79 79 73 68 69 63 62 71 79 82
63 87 96 79 79 73 78 81 86 76 71 70 72 72 72 69 66 64 65 66 71 76
83 90 95 90 77 79 88 88 89 80 76 76 71 70 72 70 68 68 64 61 61 64
96 95 97 97 94 90 95 95 86 80 75 72 75 74 74 75 74 71 68 61 59 57
94 98 97 95 93 91 84 87 77 71 67 67 72 74 73 79 77 72 69 63 62 58
88 98 88 82 84 89 81 76 71 69 63 64 67 75 75 74 72 68 63 57 55 52
87 87 80 74 79 86 78 72 68 65 62 61 67 69 67 63 60 57 55 52 46 39
94 90 89 83 83 72 66 70 66 69 69 64 64 65 63 58 58 52 49 43 37 33
86 88 87 90 85 77 80 69 74 70 63 56 56 56 48 43 40 37 35 33 30 35
86 81 77 77 74 75 74 71 62 54 48 42 40 37 36 33 30 30 29 28 29 30
77 75 72 66 58 60 61 55 48 46 43 37 36 35 33 31 32 31 30 28 29 32
68 65 58 61 56 56 52 52 49 43 37 36 35 35 35 35 35 36 33 31 33 35
56 57 54 54 51 46 39 39 40 37 37 38 37 36 35 37 38 38 39 39 39 39
52 48 48 46 44 41 39 39 37 36 36 35 35 36 37 38 41 41 43 41 46 48

GFSNIL_prec_cthk_138.txt.gz
RH
36 32 24 78 83 80 73 63 51 46 44 42 48 48 52 55 65 66 69 65 62 62
50 47 32 55 87 77 82 72 62 54 51 51 59 66 81 78 74 66 66 63 63 63
62 61 50 44 91 97 87 81 76 65 65 72 84 87 88 75 68 65 65 64 66 66
75 71 57 64 86 99 91 75 81 71 72 94 91 89 88 84 79 72 70 70 70 66
99 87 67 62 98 83 97 91 88 80 76 95 96 94 89 88 81 73 73 74 75 73
91 83 74 90 98 95 78 99 98 89 87 86 96 93 92 78 75 73 74 71 73 73
87 84 94 97 96 95 84 97 95 94 94 90 91 84 80 67 71 70 69 67 67 67
97 91 85 94 90 94 94 96 96 92 86 80 79 68 64 62 67 64 62 58 55 56
91 97 97 97 95 89 88 94 94 86 84 83 77 71 70 68 63 57 56 54 53 52
88 92 92 90 91 87 91 95 92 90 87 84 77 74 71 63 58 51 47 42 34 31
86 81 80 79 80 75 77 74 73 73 74 71 70 61 56 50 46 38 36 33 29 29
73 75 70 71 70 68 68 63 62 67 64 53 52 49 45 42 37 30 31 33 36 35
64 61 68 66 61 60 65 63 55 56 56 56 50 42 36 34 32 30 31 34 37 39
68 61 58 57 59 59 58 52 49 45 43 41 41 40 39 34 31 30 33 34 34 37

GFSNIL_prec_cthk_141.txt.gz
RH
54 49 48 44 36 28 24 62 82 86 86 68 52 51 52 50 47 47 49 47 51 62
64 52 53 45 48 36 30 45 74 89 95 74 62 52 54 52 50 52 51 51 58 65
72 71 62 52 48 42 40 36 61 98 84 83 66 65 60 55 58 59 59 58 63 66
84 95 78 56 56 49 45 34 63 78 98 92 75 73 64 63 65 64 74 69 69 69
96 96 90 68 69 70 50 41 54 75 93 98 90 76 68 73 76 86 91 84 75 73
98 96 81 73 70 70 52 56 65 75 98 90 81 86 82 79 81 96 87 95 89 83
97 95 85 98 80 67 64 68 67 91 98 99 97 94 89 87 90 84 91 98 92 88
98 97 90 84 97 90 83 70 70 81 89 98 98 98 89 90 92 93 92 97 93 82
97 98 98 97 92 87 81 80 83 93 98 99 98 95 95 94 92 87 89 83 74 67
94 94 95 95 94 80 81 90 97 98 98 98 96 97 95 91 86 84 79 73 71 67
77 82 85 81 73 71 76 82 87 92 89 94 91 90 88 88 88 88 80 75 64 56
73 65 64 68 70 70 73 72 68 72 75 78 70 71 72 73 68 62 57 58 55 54
64 68 65 61 61 71 70 66 68 67 61 59 61 62 52 45 53 54 53 53 52 51
56 60 61 65 62 58 57 60 61 58 55 56 51 51 56 54 47 42 38 37 37 35

GFSNIL_prec_cthk_144.txt.gz
RH
60 58 53 51 51 47 44 41 34 28 27 35 75 98 96 84 75 70 58 49 49 48
60 57 52 49 48 44 46 45 44 35 31 29 36 73 89 99 86 73 61 52 48 50
69 68 68 66 66 58 51 47 45 41 37 32 26 50 94 89 97 84 71 63 52 57
76 73 74 81 78 74 66 58 52 39 36 31 29 36 77 89 93 89 79 73 57 63
80 84 82 85 87 81 77 64 59 48 41 36 31 35 78 80 88 92 88 81 74 71
89 88 95 92 95 93 86 98 81 69 49 48 38 35 66 86 99 90 78 75 80 74
94 94 96 97 97 97 98 95 96 77 65 56 50 46 64 77 95 99 81 89 82 83
95 97 97 98 98 97 97 94 88 80 71 65 53 53 46 77 98 98 96 93 81 81
86 94 96 97 96 98 98 93 92 98 82 71 66 62 68 72 90 98 99 96 87 85
72 79 86 92 94 94 96 96 95 99 93 80 71 70 88 98 94 99 96 98 93 88
60 68 73 73 82 85 84 85 84 89 92 86 75 79 84 96 98 98 98 97 93 90
56 53 59 71 71 71 79 80 78 79 77 72 74 76 80 87 90 93 93 94 94 91
56 56 52 53 63 70 69 66 68 67 59 59 61 66 74 77 73 70 72 77 73 74
55 58 57 54 52 53 59 64 59 55 52 56 55 55 56 57 63 65 57 55 57 57

GFSNIL_prec_cthk_150.txt.gz
RH
48 53 57 62 60 59 58 58 55 56 55 49 46 47 45 41 38 37 38 36 44 57
47 55 61 68 67 63 62 62 61 59 57 56 47 46 49 45 42 39 37 37 41 41
47 54 64 71 70 68 67 66 64 64 63 59 56 51 46 47 47 46 38 33 31 36
46 52 60 71 71 69 70 71 71 68 67 66 65 60 58 56 53 50 49 42 35 30
43 46 50 61 74 72 74 76 74 69 70 63 63 66 61 60 64 56 49 46 42 36
43 43 46 51 69 81 78 77 77 76 71 71 73 74 69 64 65 65 56 49 47 44
43 44 45 46 54 72 82 80 79 82 80 78 82 81 81 74 72 71 64 59 53 52
40 42 44 47 48 55 68 81 83 85 85 85 83 87 91 92 83 84 67 71 66 61
39 40 42 43 45 47 57 67 76 83 87 89 91 93 94 94 98 85 85 83 75 71
39 39 40 41 43 44 47 54 63 73 81 86 92 96 97 97 97 95 92 85 79 81
38 38 38 38 40 42 46 48 54 60 68 80 83 89 96 97 97 97 95 89 83 81
33 34 34 36 37 38 40 44 48 52 62 70 78 80 82 84 96 96 97 97 89 89
28 29 28 29 32 34 35 36 39 43 47 52 66 75 73 76 77 84 91 90 94 94
22 21 22 22 23 25 27 30 32 35 37 40 46 56 61 69 68 70 72 74 83 83

GFSNIL_prec_cthk_153.txt.gz
RH
28 30 32 34 39 45 48 56 59 60 60 61 57 53 51 49 51 50 47 45 46 49
30 33 35 37 40 47 53 63 65 66 65 64 61 57 53 52 52 52 53 52 50 48
31 32 34 36 40 45 53 63 69 69 67 65 63 62 61 55 52 56 58 61 57 54
34 34 35 36 40 44 50 58 71 72 70 68 65 64 62 63 62 58 57 60 63 57
29 31 33 35 39 42 46 53 65 73 73 71 69 67 64 66 64 62 59 63 66 64
25 26 30 34 36 39 44 48 54 69 75 74 73 73 71 69 72 69 67 66 70 70
26 26 27 30 34 37 41 45 47 61 73 78 77 76 77 79 79 82 82 68 71 73
29 29 29 30 32 36 40 45 47 50 64 77 81 79 77 82 85 92 92 84 79 74
28 29 30 30 32 35 38 43 47 50 53 63 80 84 85 88 96 98 95 96 89 80
26 27 28 29 31 33 36 39 43 45 50 54 64 80 86 88 97 96 97 93 97 93
24 24 26 27 29 29 32 33 35 37 40 44 49 65 77 85 87 93 97 94 95 95
18 18 18 20 21 23 24 26 28 30 33 35 39 45 61 72 79 78 84 94 93 92
17 16 15 15 15 16 17 17 19 20 21 23 26 31 37 52 67 74 75 78 85 91
16 15 15 15 14 13 13 12 12 13 13 13 13 13 14 18 28 48 58 69 74 77

GFSNIL_prec_cthk_156.txt.gz
RH
28 25 26 26 26 26 27 28 30 35 41 45 52 58 62 62 60 57 54 51 50 54
29 28 28 28 28 27 28 30 32 35 41 47 54 61 64 65 65 61 58 58 56 55
31 30 28 26 24 25 27 29 31 35 40 48 56 65 65 66 66 66 61 61 61 59
25 25 25 26 26 27 28 28 31 34 40 47 57 66 68 68 67 67 66 62 60 63
23 23 26 29 28 28 31 30 31 35 40 47 56 68 69 69 70 69 67 64 64 62
25 25 25 28 30 30 31 31 33 36 40 46 53 64 72 71 72 73 70 68 68 67
25 24 24 27 31 31 32 32 34 37 41 47 50 57 72 75 74 75 75 76 74 75
24 21 24 26 32 33 32 33 35 38 41 46 47 51 64 81 80 79 79 80 83 85
23 27 30 32 34 37 35 34 34 35 38 42 46 50 52 71 87 83 87 92 95 98
23 25 26 27 29 32 36 37 36 33 33 33 37 42 47 50 77 85 88 95 97 96
20 21 23 23 23 24 26 28 29 31 32 32 28 31 35 41 51 73 80 87 92 94
18 21 21 20 19 17 17 18 18 18 20 18 15 14 16 21 31 39 59 71 81 85
17 18 19 20 19 19 17 17 17 16 17 13 13 10 10 10 10 13 18 35 46 65
16 16 17 18 19 21 20 19 18 19 20 17 12 11 11 10 10 10 11 12 17 27

GFSNIL_prec_cthk_159.txt.gz
RH
36 34 33 30 28 29 29 28 27 26 27 29 30 32 33 36 40 44 55 63 66 59
36 32 29 28 28 28 27 26 26 26 28 29 30 33 34 39 46 49 60 67 71 66
31 29 28 27 26 25 26 27 26 26 29 31 32 34 36 41 49 53 61 68 71 71
29 27 27 27 27 25 27 27 25 27 30 32 33 35 38 41 49 57 63 67 71 72
27 27 27 27 26 23 25 25 26 27 30 34 36 39 39 43 49 60 65 68 73 72
25 23 24 25 24 21 23 24 27 30 32 35 39 41 42 46 51 63 68 72 74 74
22 18 19 23 26 22 24 26 29 33 36 38 40 41 44 49 52 63 71 75 76 78
22 19 21 24 26 29 30 32 29 31 33 35 39 41 42 47 50 57 75 82 79 81
18 19 21 22 24 27 29 32 31 31 35 33 33 36 37 41 44 46 65 77 81 85
17 18 19 21 24 26 25 25 26 27 28 25 22 24 26 31 31 35 42 64 73 80
17 18 19 20 20 21 20 17 15 17 17 18 11 11 11 13 16 15 18 33 50 63
17 18 19 20 20 21 20 19 18 18 18 16 13 10 9 10 11 11 11 10 12 26
18 19 20 22 23 23 23 23 24 24 24 22 19 14 13 12 11 12 11 10 10 10
17 19 23 25 26 27 27 28 29 30 29 28 21 19 18 17 16 16 15 14 13 12

GFSNIL_prec_cthk_162.txt.gz
RH
41 39 37 35 32 31 27 25 24 22 21 22 23 24 25 28 30 32 36 40 43 45
41 41 39 35 30 27 25 24 23 22 24 24 25 25 25 29 31 34 36 40 42 44
44 40 36 29 26 24 25 25 23 22 24 25 26 26 28 31 34 36 39 42 43 45
39 32 27 26 24 22 25 24 23 24 24 25 26 27 30 34 36 39 42 45 47 49
30 24 25 24 24 21 25 22 22 23 24 26 27 29 33 38 41 43 45 49 52 55
21 19 23 25 25 22 23 21 20 21 23 25 29 31 36 41 43 46 49 52 57 61
22 21 22 22 22 22 24 21 21 22 24 26 28 32 35 40 40 42 44 51 60 66
20 17 18 20 22 23 24 24 23 22 23 24 26 29 31 32 33 33 35 41 48 67
16 18 20 22 23 21 20 19 18 13 11 9 10 13 15 18 18 18 20 24 31 44
18 18 18 18 18 19 19 18 18 14 13 10 10 10 11 11 12 11 11 11 13 22
16 16 16 17 18 19 19 20 19 19 14 14 13 12 12 11 12 12 11 10 9 9
16 17 18 19 19 20 21 22 24 23 21 19 18 18 18 17 16 15 14 13 12 11
18 19 20 21 22 23 24 25 27 28 26 23 22 21 21 20 20 19 18 17 16 15
16 18 20 22 23 25 27 26 25 26 28 25 23 22 22 22 21 21 20 20 19 18

GFSNIL_prec_cthk_165.txt.gz
RH
58 58 53 45 36 35 34 34 31 26 23 20 19 21 24 27 28 29 30 30 32 33
53 46 43 44 44 43 39 33 24 18 17 19 20 22 27 30 31 32 33 35 35 37
59 53 48 43 36 29 22 17 15 17 18 21 24 27 31 32 34 36 37 39 40 43
50 45 41 32 26 17 15 14 16 18 19 22 25 26 29 33 35 37 39 40 43 47
46 37 25 18 16 16 18 18 19 18 18 20 24 27 30 33 33 35 37 40 45 50
30 21 18 21 21 19 18 16 17 17 18 20 24 27 29 30 30 30 30 34 40 49
21 20 17 16 17 17 18 16 14 13 11 10 15 19 21 22 21 21 22 24 28 36
19 15 15 16 16 16 15 14 12 11 8 7 8 10 10 11 11 11 12 13 13 16
14 15 15 16 16 17 16 16 13 11 11 10 10 11 11 11 12 12 11 10 10 10
15 15 15 16 17 16 17 17 16 15 15 15 16 16 16 16 15 14 14 13 12 12
14 15 17 16 18 19 21 21 20 19 18 18 19 19 19 19 19 18 18 18 17 17
15 17 18 19 20 21 21 22 23 22 20 20 20 21 21 22 22 21 21 20 20 21
17 17 18 20 23 24 24 24 26 25 24 23 23 23 24 24 24 23 23 23 22 23
15 17 18 20 23 24 25 25 26 25 23 24 24 25 26 26 27 28 28 28 28 28

GFSNIL_prec_cthk_168.txt.gz
RH
57 60 57 56 54 53 50 45 41 37 36 32 31 32 33 33 30 30 31 32 32 33
62 60 60 57 50 43 39 35 30 26 24 23 23 23 25 27 29 30 32 34 37 38
59 60 55 48 41 37 33 28 24 21 18 19 21 22 25 29 29 30 32 35 37 37
62 56 50 44 36 23 17 14 15 18 20 22 25 24 23 23 23 25 28 31 35 39
60 46 39 28 19 18 22 21 17 13 12 13 15 17 18 19 21 21 23 25 30 34
47 37 30 25 22 16 12 11 9 7 7 8 9 9 9 10 10 10 10 11 14 18
39 25 17 15 13 11 10 9 8 8 9 9 9 9 9 9 9 9 10 10 10 11
18 16 14 14 13 12 10 9 10 11 12 12 13 13 13 13 13 14 14 14 13 12
16 14 15 14 13 13 12 13 13 14 15 16 17 17 17 17 17 17 17 17 17 16
14 15 14 14 15 16 16 17 17 18 18 18 19 19 20 20 20 20 20 20 20 19
15 14 14 15 18 18 19 20 20 20 20 20 20 21 22 22 23 23 24 23 23 22
14 14 15 17 19 19 21 21 22 23 23 22 22 23 23 24 25 27 28 28 28 29
14 15 17 19 20 21 22 22 22 21 19 18 17 16 16 17 18 21 25 27 28 30
14 16 18 19 20 20 19 18 18 18 18 17 16 16 16 16 16 17 19 20 23 27